| time (UTC) | temp F | wind direction | speed MPH | gust MPH | rain 1hr in | rain 24hr in | rain mn in | humidity % | barometer mb |
| 20260906210031 | 88 | 146 | 8.0 | 13.0 | 0.00 | 0.00 | 0.00 | 36 | 1016.9 |
| 20260906204527 | 89 | 111 | 9.0 | 13.0 | 0.00 | 0.00 | 0.00 | 37 | 1017.0 |
| 20260906203035 | 90 | 136 | 11.0 | 16.0 | 0.00 | 0.00 | 0.00 | 33 | 1017.3 |
| 20260906201508 | 89 | 108 | 8.0 | 17.0 | 0.00 | 0.00 | 0.00 | 35 | 1017.3 |
| 20260906200030 | 89 | 113 | 9.0 | 16.0 | 0.00 | 0.00 | 0.00 | 35 | 1017.4 |
| 20260906194524 | 88 | 133 | 8.0 | 14.0 | 0.00 | 0.00 | 0.00 | 37 | 1017.6 |
| 20260906193030 | 87 | 133 | 9.0 | 15.0 | 0.00 | 0.00 | 0.00 | 38 | 1018.1 |
| 20260906191530 | 87 | 139 | 6.0 | 10.0 | 0.00 | 0.00 | 0.00 | 39 | 1018.3 |
| 20260906190012 | 87 | 94 | 7.0 | 12.0 | 0.00 | 0.00 | 0.00 | 39 | 1018.6 |
| 20260906184521 | 87 | 108 | 8.0 | 13.0 | 0.00 | 0.00 | 0.00 | 39 | 1018.8 |
| 20260906183035 | 86 | 141 | 2.0 | 8.0 | 0.00 | 0.00 | 0.00 | 41 | 1019.2 |
| 20260906181536 | 84 | 113 | 6.0 | 11.0 | 0.00 | 0.00 | 0.00 | 43 | 1019.5 |
| 20260906180040 | 84 | 90 | 6.0 | 8.0 | 0.00 | 0.00 | 0.00 | 43 | 1019.8 |
| 20260906174520 | 82 | 355 | 4.0 | 10.0 | 0.00 | 0.00 | 0.00 | 44 | 1020.2 |
| 20260906173025 | 83 | 5 | 3.0 | 10.0 | 0.00 | 0.00 | 0.00 | 44 | 1020.3 |
| 20260906171527 | 81 | 63 | 7.0 | 10.0 | 0.00 | 0.00 | 0.00 | 46 | 1020.4 |
| 20260906170033 | 80 | 89 | 4.0 | 12.0 | 0.00 | 0.00 | 0.00 | 47 | 1020.4 |
| 20260906164543 | 79 | 13 | 5.0 | 12.0 | 0.00 | 0.00 | 0.00 | 48 | 1020.5 |
| 20260906163025 | 79 | 75 | 4.0 | 9.0 | 0.00 | 0.00 | 0.00 | 49 | 1020.7 |
| 20260906161523 | 78 | 50 | 3.0 | 8.0 | 0.00 | 0.00 | 0.00 | 50 | 1020.6 |
| 20260906160038 | 77 | 346 | 0.0 | 4.0 | 0.00 | 0.00 | 0.00 | 52 | 1020.6 |
| 20260906154534 | 76 | 338 | 2.0 | 8.0 | 0.00 | 0.00 | 0.00 | 55 | 1020.7 |
| 20260906153039 | 75 | 84 | 3.0 | 7.0 | 0.00 | 0.00 | 0.00 | 56 | 1020.6 |
| 20260906151520 | 73 | 86 | 3.0 | 8.0 | 0.00 | 0.00 | 0.00 | 59 | 1020.7 |
| 20260906150043 | 73 | 88 | 6.0 | 10.0 | 0.00 | 0.00 | 0.00 | 58 | 1020.5 |
| 20260906144536 | 72 | 86 | 5.0 | 7.0 | 0.00 | 0.00 | 0.00 | 59 | 1020.5 |
| 20260906143037 | 72 | 46 | 4.0 | 7.0 | 0.00 | 0.00 | 0.00 | 60 | 1020.4 |
| 20260906141542 | 70 | 45 | 7.0 | 9.0 | 0.00 | 0.00 | 0.00 | 61 | 1020.3 |
| 20260906140022 | 69 | 356 | 6.0 | 9.0 | 0.00 | 0.00 | 0.00 | 62 | 1020.2 |
| 20260906134527 | 69 | 23 | 7.0 | 9.0 | 0.00 | 0.00 | 0.00 | 62 | 1020.2 |
| 20260906133031 | 68 | 16 | 7.0 | 9.0 | 0.00 | 0.00 | 0.00 | 63 | 1020.0 |
| 20260906131531 | 66 | 15 | 6.0 | 8.0 | 0.00 | 0.00 | 0.00 | 66 | 1019.6 |
| 20260906130043 | 66 | 18 | 7.0 | 10.0 | 0.00 | 0.00 | 0.00 | 67 | 1019.3 |
| 20260906124524 | 65 | 6 | 8.0 | 11.0 | 0.00 | 0.00 | 0.00 | 68 | 1019.2 |
| 20260906123004 | 65 | 11 | 9.0 | 12.0 | 0.00 | 0.00 | 0.00 | 68 | 1019.1 |
| 20260906121513 | 66 | 7 | 9.0 | 14.0 | 0.00 | 0.00 | 0.00 | 66 | 1019.0 |
| 20260906120015 | 66 | 12 | 10.0 | 13.0 | 0.00 | 0.00 | 0.00 | 67 | 1018.8 |
| 20260906114535 | 66 | 352 | 10.0 | 12.0 | 0.00 | 0.00 | 0.00 | 67 | 1018.8 |
| 20260906113026 | 65 | 352 | 8.0 | 11.0 | 0.00 | 0.00 | 0.00 | 69 | 1018.8 |
| 20260906111506 | 65 | 349 | 7.0 | 9.0 | 0.00 | 0.00 | 0.00 | 69 | 1018.7 |
| 20260906110018 | 66 | 333 | 8.0 | 12.0 | 0.00 | 0.00 | 0.00 | 67 | 1018.7 |
| 20260906104519 | 66 | 345 | 9.0 | 10.0 | 0.00 | 0.00 | 0.00 | 67 | 1018.7 |
| 20260906103024 | 66 | 338 | 7.0 | 11.0 | 0.00 | 0.00 | 0.00 | 68 | 1018.7 |
| 20260906101528 | 66 | 326 | 9.0 | 10.0 | 0.00 | 0.00 | 0.00 | 68 | 1018.7 |
| 20260906100011 | 66 | 339 | 10.0 | 12.0 | 0.00 | 0.00 | 0.00 | 68 | 1018.7 |
| 20260906094527 | 66 | 342 | 8.0 | 11.0 | 0.00 | 0.00 | 0.00 | 67 | 1018.6 |
| 20260906093019 | 66 | 8 | 9.0 | 10.0 | 0.00 | 0.00 | 0.00 | 68 | 1018.5 |
| 20260906091530 | 65 | 12 | 8.0 | 10.0 | 0.00 | 0.00 | 0.00 | 68 | 1018.6 |
| 20260906090033 | 65 | 14 | 9.0 | 12.0 | 0.00 | 0.00 | 0.00 | 68 | 1018.5 |
| 20260906084514 | 66 | 7 | 8.0 | 11.0 | 0.00 | 0.00 | 0.00 | 67 | 1018.6 |
| 20260906083018 | 66 | 16 | 8.0 | 12.0 | 0.00 | 0.00 | 0.00 | 66 | 1018.7 |
| 20260906081540 | 66 | 32 | 9.0 | 12.0 | 0.00 | 0.00 | 0.00 | 66 | 1018.8 |
| 20260906080027 | 67 | 7 | 12.0 | 14.0 | 0.00 | 0.00 | 0.00 | 65 | 1018.5 |
| 20260906074532 | 67 | 8 | 13.0 | 15.0 | 0.00 | 0.00 | 0.00 | 64 | 1018.2 |
| 20260906073016 | 67 | 23 | 11.0 | 13.0 | 0.00 | 0.00 | 0.00 | 63 | 1018.2 |
| 20260906071518 | 68 | 21 | 11.0 | 13.0 | 0.00 | 0.00 | 0.00 | 62 | 1018.1 |
| 20260906070028 | 68 | 14 | 9.0 | 12.0 | 0.00 | 0.00 | 0.00 | 60 | 1018.2 |
| 20260906064527 | 69 | 27 | 10.0 | 12.0 | 0.00 | 0.00 | 0.00 | 59 | 1018.2 |
| 20260906063037 | 70 | 6 | 10.0 | 12.0 | 0.00 | 0.00 | 0.00 | 57 | 1018.2 |
| 20260906061529 | 70 | 22 | 8.0 | 10.0 | 0.00 | 0.00 | 0.00 | 56 | 1018.3 |
| 20260906060023 | 70 | 27 | 9.0 | 11.0 | 0.00 | 0.00 | 0.00 | 55 | 1018.4 |
| 20260906054529 | 73 | 343 | 4.0 | 5.0 | 0.00 | 0.00 | 0.00 | 49 | 1018.4 |
| 20260906053032 | 72 | 20 | 7.0 | 9.0 | 0.00 | 0.00 | 0.00 | 51 | 1018.7 |
| 20260906051531 | 73 | 117 | 3.0 | 5.0 | 0.00 | 0.00 | 0.00 | 49 | 1018.7 |
| 20260906050020 | 73 | 69 | 7.0 | 10.0 | 0.00 | 0.00 | 0.00 | 49 | 1018.7 |
| 20260906044528 | 74 | 70 | 5.0 | 9.0 | 0.00 | 0.00 | 0.00 | 47 | 1018.3 |
| 20260906043029 | 75 | 68 | 4.0 | 9.0 | 0.00 | 0.00 | 0.00 | 47 | 1018.3 |
| 20260906041537 | 75 | 34 | 8.0 | 9.0 | 0.00 | 0.00 | 0.00 | 46 | 1018.4 |
| 20260906040038 | 77 | 129 | 0.0 | 1.0 | 0.00 | 0.00 | 0.00 | 42 | 1018.2 |
| 20260906034524 | 78 | 143 | 0.0 | 6.0 | 0.00 | 0.00 | 0.00 | 43 | 1018.3 |
| 20260906033027 | 79 | 123 | 5.0 | 9.0 | 0.00 | 0.00 | 0.00 | 42 | 1018.2 |
| 20260906031546 | 79 | 97 | 5.0 | 8.0 | 0.00 | 0.00 | 0.00 | 45 | 1018.0 |
| 20260906030034 | 80 | 104 | 5.0 | 8.0 | 0.00 | 0.00 | 0.00 | 43 | 1017.8 |
| 20260906024533 | 81 | 117 | 5.0 | 9.0 | 0.00 | 0.00 | 0.00 | 35 | 1017.6 |
| 20260906023024 | 81 | 91 | 5.0 | 6.0 | 0.00 | 0.00 | 0.00 | 33 | 1017.1 |
| 20260906021532 | 84 | 162 | 1.0 | 5.0 | 0.00 | 0.00 | 0.00 | 30 | 1016.9 |
| 20260906020048 | 86 | 62 | 1.0 | 2.0 | 0.00 | 0.00 | 0.00 | 28 | 1016.6 |
| 20260906014535 | 87 | 340 | 0.0 | 1.0 | 0.00 | 0.00 | 0.00 | 27 | 1016.5 |
| 20260906013031 | 88 | 335 | 0.0 | 1.0 | 0.00 | 0.00 | 0.00 | 26 | 1016.4 |
| 20260906011529 | 90 | 255 | 0.0 | 1.0 | 0.00 | 0.00 | 0.00 | 25 | 1016.4 |
| 20260906010031 | 91 | 37 | 0.0 | 1.0 | 0.00 | 0.00 | 0.00 | 25 | 1016.4 |
| 20260906004531 | 92 | 130 | 2.0 | 3.0 | 0.00 | 0.00 | 0.00 | 25 | 1016.4 |
| 20260906003023 | 93 | 238 | 1.0 | 4.0 | 0.00 | 0.00 | 0.00 | 24 | 1016.3 |
| 20260906001526 | 91 | 243 | 4.0 | 8.0 | 0.00 | 0.00 | 0.00 | 25 | 1016.3 |
| 20260906000028 | 88 | 233 | 4.0 | 12.0 | 0.00 | 0.00 | 0.00 | 28 | 1016.3 |
| 20260905234533 | 90 | 222 | 9.0 | 14.0 | 0.00 | 0.00 | 0.00 | 26 | 1016.3 |
| 20260905233033 | 91 | 143 | 9.0 | 13.0 | 0.00 | 0.00 | 0.00 | 24 | 1016.2 |
| 20260905231520 | 92 | 129 | 7.0 | 10.0 | 0.00 | 0.00 | 0.00 | 22 | 1016.1 |
| 20260905230028 | 92 | 121 | 5.0 | 10.0 | 0.00 | 0.00 | 0.00 | 22 | 1016.2 |
| 20260905224527 | 93 | 128 | 5.0 | 13.0 | 0.00 | 0.00 | 0.00 | 22 | 1016.2 |
| 20260905223039 | 93 | 156 | 5.0 | 10.0 | 0.00 | 0.00 | 0.00 | 21 | 1016.2 |
| 20260905221544 | 94 | 133 | 5.0 | 9.0 | 0.00 | 0.00 | 0.00 | 21 | 1016.2 |
| 20260905220027 | 94 | 120 | 5.0 | 11.0 | 0.00 | 0.00 | 0.00 | 21 | 1016.4 |
| 20260905214529 | 93 | 60 | 3.0 | 7.0 | 0.00 | 0.00 | 0.00 | 21 | 1016.4 |
| 20260905213034 | 93 | 122 | 5.0 | 14.0 | 0.00 | 0.00 | 0.00 | 21 | 1016.4 |
| 20260905211543 | 93 | 56 | 3.0 | 7.0 | 0.00 | 0.00 | 0.00 | 21 | 1016.4 |